VAG5563 VVTS-VVCR

Flight info

Callsign VAG5563
Flight time N/A
Altitude 24000
Route LKH W15 BANKE BANKE1A
Aircraft A321/M-SDE3FGHIRWY/LB1

Departure

Time 2026-05-07 15:47
Airport Tan Son Nhat International Airport (VVTS)

Arrival

Time N/A
Airport Cam Ranh International Airport / Cam Ranh Air Base (VVCR)
Time Latitude Longitude Altitude Speed Heading
2026-05-07 14:57 10.81454 106.65482 29 ft 0 kts 160°
2026-05-07 15:17 10.81455 106.65482 29 ft 0 kts 160°
2026-05-07 15:18 10.81465 106.65478 29 ft 2 kts 159°
2026-05-07 15:18 10.81479 106.65472 29 ft 2 kts 160°
2026-05-07 15:18 10.81493 106.65467 29 ft 2 kts 160°
2026-05-07 15:18 10.81501 106.65463 29 ft 2 kts 136°
2026-05-07 15:20 10.81503 106.65462 29 ft 0 kts 129°
2026-05-07 15:22 10.81498 106.65466 29 ft 1 kts 158°
2026-05-07 15:22 10.81468 106.65476 29 ft 6 kts 159°
2026-05-07 15:22 10.81439 106.65488 30 ft 1 kts 159°
2026-05-07 15:22 10.81437 106.65488 30 ft 0 kts 159°
2026-05-07 15:37 10.81438 106.65488 30 ft 0 kts 159°
2026-05-07 15:39 10.81434 106.65490 30 ft 1 kts 159°
2026-05-07 15:39 10.81413 106.65498 30 ft 4 kts 156°
2026-05-07 15:40 10.81402 106.65536 30 ft 8 kts 79°
2026-05-07 15:40 10.81421 106.65592 30 ft 12 kts 70°
2026-05-07 15:40 10.81457 106.65692 29 ft 14 kts 69°
2026-05-07 15:40 10.81505 106.65778 29 ft 14 kts 32°
2026-05-07 15:41 10.81602 106.65798 29 ft 14 kts
2026-05-07 15:41 10.81654 106.65844 29 ft 13 kts 60°
2026-05-07 15:41 10.81694 106.65928 29 ft 13 kts 69°
2026-05-07 15:41 10.81731 106.66026 29 ft 13 kts 69°
2026-05-07 15:42 10.81766 106.66120 29 ft 13 kts 69°
2026-05-07 15:42 10.81795 106.66201 29 ft 13 kts 69°
2026-05-07 15:42 10.81832 106.66294 29 ft 13 kts 69°
2026-05-07 15:42 10.81865 106.66383 29 ft 13 kts 69°
2026-05-07 15:43 10.81899 106.66473 29 ft 13 kts 69°
2026-05-07 15:43 10.81929 106.66554 30 ft 12 kts 69°
2026-05-07 15:43 10.81963 106.66645 29 ft 13 kts 69°
2026-05-07 15:43 10.81996 106.66732 30 ft 12 kts 69°
2026-05-07 15:44 10.82025 106.66810 32 ft 11 kts 69°
2026-05-07 15:44 10.82057 106.66876 33 ft 10 kts 58°
2026-05-07 15:44 10.82105 106.66926 34 ft 9 kts 35°
2026-05-07 15:44 10.82157 106.66966 34 ft 9 kts 38°
2026-05-07 15:45 10.82208 106.67004 35 ft 8 kts 26°
2026-05-07 15:45 10.82268 106.67002 35 ft 9 kts 342°
2026-05-07 15:45 10.82330 106.66968 34 ft 10 kts 321°
2026-05-07 15:45 10.82361 106.66921 34 ft 9 kts 241°
2026-05-07 15:46 10.82339 106.66864 32 ft 12 kts 250°
2026-05-07 15:46 10.82218 106.66548 32 ft 87 kts 246°
2026-05-07 15:46 10.81905 106.65717 29 ft 165 kts 249°
2026-05-07 15:47 10.81453 106.64503 497 ft 192 kts 248°
2026-05-07 15:47 10.81003 106.63269 1451 ft 191 kts 245°
2026-05-07 15:47 10.80505 106.61976 2176 ft 207 kts 245°
2026-05-07 15:47 10.79954 106.60573 2904 ft 224 kts 246°
2026-05-07 15:48 10.79386 106.59102 3486 ft 232 kts 247°
2026-05-07 15:48 10.78883 106.57780 3722 ft 248 kts 248°
2026-05-07 15:48 10.76235 106.55183 4427 ft 274 kts 186°
2026-05-07 15:49 10.74348 106.55396 4839 ft 273 kts 154°
2026-05-07 15:49 10.72813 106.56436 5161 ft 274 kts 139°
2026-05-07 15:49 10.71323 106.57605 5772 ft 278 kts 141°
2026-05-07 15:49 10.69756 106.58779 6443 ft 281 kts 141°
2026-05-07 15:50 10.68146 106.59961 7082 ft 285 kts 141°
2026-05-07 15:50 10.66535 106.61136 7756 ft 287 kts 141°
2026-05-07 15:50 10.65153 106.62416 8321 ft 285 kts 121°
2026-05-07 15:50 10.64441 106.64205 8771 ft 279 kts 95°
2026-05-07 15:51 10.64560 106.66054 8949 ft 276 kts 73°
2026-05-07 15:51 10.65225 106.67839 8954 ft 274 kts 67°
2026-05-07 15:51 10.65955 106.69647 8960 ft 274 kts 67°
2026-05-07 15:51 10.66680 106.71481 9149 ft 281 kts 68°
2026-05-07 15:52 10.67385 106.73310 9806 ft 280 kts 68°
2026-05-07 15:52 10.68080 106.75132 10395 ft 281 kts 69°
2026-05-07 15:52 10.68738 106.76865 10747 ft 284 kts 69°
2026-05-07 15:52 10.69441 106.78725 10840 ft 284 kts 69°
2026-05-07 15:53 10.70122 106.80531 10845 ft 283 kts 69°
2026-05-07 15:53 10.70822 106.82391 10853 ft 283 kts 70°
2026-05-07 15:53 10.71353 106.84362 10992 ft 289 kts 79°
2026-05-07 15:53 10.71544 106.86409 11542 ft 291 kts 87°
2026-05-07 15:54 10.71565 106.88448 12125 ft 291 kts 89°
2026-05-07 15:54 10.71562 106.90533 12614 ft 293 kts 89°
2026-05-07 15:54 10.71557 106.92600 13052 ft 296 kts 89°
2026-05-07 15:54 10.71553 106.94718 13505 ft 299 kts 89°
2026-05-07 15:55 10.71550 106.96830 13967 ft 301 kts 89°
2026-05-07 15:55 10.71548 106.98947 14361 ft 305 kts 89°
2026-05-07 15:55 10.71547 107.01133 14555 ft 316 kts 90°
2026-05-07 15:55 10.71547 107.03387 14749 ft 327 kts 90°
2026-05-07 15:56 10.71547 107.05769 14945 ft 338 kts 90°
2026-05-07 15:56 10.71546 107.08183 15131 ft 348 kts 90°
2026-05-07 15:56 10.71545 107.10695 15316 ft 358 kts 90°
2026-05-07 15:56 10.71544 107.13247 15606 ft 364 kts 90°
2026-05-07 15:57 10.71543 107.15818 15995 ft 366 kts 90°
2026-05-07 15:57 10.71541 107.18407 16381 ft 368 kts 90°
2026-05-07 15:57 10.71540 107.20955 16756 ft 370 kts 90°
2026-05-07 15:57 10.71539 107.23400 17110 ft 372 kts 90°
2026-05-07 15:58 10.71538 107.26009 17468 ft 374 kts 90°
2026-05-07 15:58 10.71540 107.28669 17813 ft 376 kts 89°
2026-05-07 15:58 10.71952 107.31318 18107 ft 380 kts 72°
2026-05-07 15:58 10.73182 107.33688 18445 ft 384 kts 54°
2026-05-07 15:59 10.75060 107.35654 18795 ft 387 kts 44°
2026-05-07 15:59 10.77097 107.37502 19130 ft 389 kts 43°
2026-05-07 15:59 10.79132 107.39338 19442 ft 391 kts 43°
2026-05-07 15:59 10.81178 107.41190 19798 ft 392 kts 43°
2026-05-07 16:00 10.83195 107.43021 20211 ft 390 kts 43°
2026-05-07 16:00 10.85217 107.44862 20630 ft 388 kts 43°
2026-05-07 16:00 10.87252 107.46719 21020 ft 387 kts 43°
2026-05-07 16:00 10.89250 107.48543 21382 ft 387 kts 43°
2026-05-07 16:01 10.91239 107.50362 21738 ft 386 kts 43°
2026-05-07 16:01 10.93260 107.52210 22090 ft 385 kts 43°
2026-05-07 16:01 10.95232 107.54015 22441 ft 384 kts 43°
2026-05-07 16:01 10.97235 107.55851 22778 ft 384 kts 43°
2026-05-07 16:02 10.99226 107.57675 23102 ft 384 kts 43°
2026-05-07 16:02 11.01214 107.59496 23376 ft 385 kts 43°
2026-05-07 16:02 11.03226 107.61340 23639 ft 387 kts 43°
2026-05-07 16:02 11.05226 107.63173 23914 ft 388 kts 43°
2026-05-07 16:03 11.07243 107.65022 24181 ft 389 kts 43°
2026-05-07 16:03 11.09247 107.66859 24448 ft 391 kts 43°
2026-05-07 16:03 11.11277 107.68721 24700 ft 392 kts 43°
2026-05-07 16:03 11.13304 107.70579 24890 ft 394 kts 43°
2026-05-07 16:04 11.15349 107.72455 24908 ft 388 kts 43°
2026-05-07 16:04 11.17340 107.74281 24918 ft 385 kts 43°
2026-05-07 16:04 11.19350 107.76125 24925 ft 384 kts 43°
2026-05-07 16:04 11.21318 107.77931 24933 ft 384 kts 43°
2026-05-07 16:05 11.23326 107.79775 24939 ft 384 kts 43°
2026-05-07 16:05 11.25326 107.81612 24946 ft 384 kts 43°
2026-05-07 16:05 11.27061 107.83205 24949 ft 384 kts 43°
2026-05-07 16:05 11.29181 107.85152 24953 ft 384 kts 43°
2026-05-07 16:06 11.31150 107.86961 24955 ft 384 kts 43°
2026-05-07 16:06 11.33158 107.88806 24956 ft 384 kts 43°
2026-05-07 16:06 11.35157 107.90645 24961 ft 384 kts 43°
2026-05-07 16:06 11.37140 107.92467 24968 ft 384 kts 43°
2026-05-07 16:07 11.39159 107.94325 24976 ft 384 kts 43°
2026-05-07 16:07 11.41145 107.96152 24985 ft 384 kts 43°
2026-05-07 16:07 11.43120 107.97970 24991 ft 384 kts 43°
2026-05-07 16:07 11.45116 107.99807 25000 ft 385 kts 43°
2026-05-07 16:08 11.47111 108.01643 25009 ft 385 kts 43°
2026-05-07 16:08 11.49121 108.03494 25012 ft 385 kts 43°
2026-05-07 16:08 11.51118 108.05334 25015 ft 385 kts 43°
2026-05-07 16:08 11.53107 108.07166 25015 ft 384 kts 43°
2026-05-07 16:09 11.55090 108.08993 25010 ft 384 kts 43°
2026-05-07 16:09 11.57079 108.10825 25005 ft 384 kts 43°
2026-05-07 16:09 11.59027 108.12702 25002 ft 387 kts 46°
2026-05-07 16:09 11.60846 108.14734 24998 ft 392 kts 50°
2026-05-07 16:10 11.62525 108.16931 24996 ft 393 kts 54°
2026-05-07 16:10 11.64128 108.19218 24991 ft 392 kts 55°
2026-05-07 16:10 11.65703 108.21494 24989 ft 393 kts 55°
2026-05-07 16:10 11.67267 108.23758 24991 ft 393 kts 55°
2026-05-07 16:11 11.68856 108.26054 24993 ft 393 kts 55°
2026-05-07 16:11 11.70431 108.28325 24995 ft 392 kts 55°
2026-05-07 16:11 11.72001 108.30587 25000 ft 392 kts 55°
2026-05-07 16:11 11.73594 108.32890 25004 ft 392 kts 56°
2026-05-07 16:12 11.74973 108.35278 25007 ft 392 kts 63°
2026-05-07 16:12 11.76044 108.37833 25013 ft 393 kts 70°
2026-05-07 16:12 11.76854 108.40501 25022 ft 392 kts 73°
2026-05-07 16:12 11.77590 108.43150 25028 ft 392 kts 74°
2026-05-07 16:13 11.78328 108.45838 25034 ft 392 kts 74°
2026-05-07 16:13 11.79063 108.48505 25041 ft 392 kts 73°
2026-05-07 16:13 11.79811 108.51207 25043 ft 392 kts 73°
2026-05-07 16:13 11.80557 108.53891 25037 ft 392 kts 73°
2026-05-07 16:14 11.81300 108.56560 25029 ft 392 kts 73°
2026-05-07 16:14 11.82044 108.59230 25021 ft 392 kts 73°
2026-05-07 16:14 11.82787 108.61900 25011 ft 392 kts 73°
2026-05-07 16:14 11.83527 108.64552 25000 ft 392 kts 73°
2026-05-07 16:15 11.84280 108.67216 24988 ft 392 kts 73°
2026-05-07 16:15 11.85037 108.69890 24978 ft 392 kts 73°
2026-05-07 16:15 11.85793 108.72559 24969 ft 392 kts 73°
2026-05-07 16:15 11.86555 108.75256 24961 ft 392 kts 73°
2026-05-07 16:16 11.87305 108.77913 24958 ft 391 kts 73°
2026-05-07 16:16 11.88054 108.80567 24960 ft 391 kts 73°
2026-05-07 16:16 11.88804 108.83224 24963 ft 391 kts 73°
2026-05-07 16:16 11.89535 108.85892 24962 ft 390 kts 75°
2026-05-07 16:17 11.90105 108.88606 24652 ft 390 kts 79°
2026-05-07 16:17 11.90585 108.91328 23770 ft 399 kts 79°
2026-05-07 16:17 11.91068 108.94158 22997 ft 402 kts 79°
2026-05-07 16:17 11.91538 108.96929 22440 ft 400 kts 79°
2026-05-07 16:18 11.92018 108.99738 21875 ft 398 kts 79°
2026-05-07 16:18 11.92493 109.02516 21263 ft 399 kts 79°
2026-05-07 16:18 11.92970 109.05291 20587 ft 400 kts 80°
2026-05-07 16:18 11.93447 109.08075 20171 ft 394 kts 80°
2026-05-07 16:19 11.93911 109.10783 19823 ft 387 kts 80°
2026-05-07 16:19 11.94372 109.13474 19479 ft 380 kts 80°
2026-05-07 16:19 11.94824 109.16109 19133 ft 373 kts 80°
2026-05-07 16:19 11.95266 109.18694 18759 ft 368 kts 80°
2026-05-07 16:20 11.95568 109.21270 18364 ft 363 kts 91°
2026-05-07 16:20 11.95060 109.23742 17990 ft 358 kts 108°
2026-05-07 16:20 11.94186 109.26122 17644 ft 353 kts 109°
2026-05-07 16:20 11.93343 109.28417 17165 ft 343 kts 109°
2026-05-07 16:21 11.92498 109.30640 16601 ft 333 kts 114°
2026-05-07 16:21 11.91089 109.32498 15991 ft 329 kts 141°
2026-05-07 16:21 11.89028 109.33415 15456 ft 326 kts 169°
2026-05-07 16:21 11.86770 109.33225 14853 ft 327 kts 198°
2026-05-07 16:22 11.84812 109.32076 14249 ft 325 kts 213°
2026-05-07 16:22 11.82912 109.30828 13641 ft 321 kts 206°
2026-05-07 16:22 11.80953 109.29823 13041 ft 316 kts 204°
2026-05-07 16:22 11.79202 109.28491 12394 ft 318 kts 231°
2026-05-07 16:23 11.78297 109.26456 11801 ft 314 kts 263°
2026-05-07 16:23 11.78500 109.24315 11226 ft 304 kts 295°
2026-05-07 16:23 11.79693 109.22624 10675 ft 291 kts 322°
2026-05-07 16:23 11.81231 109.21304 10126 ft 288 kts 318°
2026-05-07 16:24 11.82494 109.19718 9556 ft 288 kts 307°
2026-05-07 16:24 11.83782 109.18214 9000 ft 278 kts 328°
2026-05-07 16:24 11.85524 109.17482 8569 ft 262 kts 356°
2026-05-07 16:24 11.87273 109.17670 8207 ft 246 kts 21°
2026-05-07 16:25 11.88808 109.18323 7828 ft 239 kts 25°
2026-05-07 16:25 11.90367 109.18961 7330 ft 237 kts 21°
2026-05-07 16:25 11.91928 109.19503 6837 ft 236 kts 19°
2026-05-07 16:25 11.93496 109.20033 6349 ft 235 kts 20°
2026-05-07 16:26 11.95031 109.20567 5878 ft 233 kts 20°
2026-05-07 16:26 11.96553 109.21098 5603 ft 230 kts 20°
2026-05-07 16:26 11.98106 109.21635 5483 ft 232 kts 20°
2026-05-07 16:26 11.99128 109.21990 5403 ft 231 kts 20°
2026-05-07 16:27 12.01172 109.22699 5247 ft 232 kts 19°
2026-05-07 16:27 12.02714 109.23233 5121 ft 228 kts 19°
2026-05-07 16:27 12.04192 109.23745 5044 ft 216 kts 20°
2026-05-07 16:27 12.05599 109.24232 4988 ft 210 kts 20°
2026-05-07 16:28 12.07004 109.24719 4864 ft 209 kts 20°
2026-05-07 16:28 12.08385 109.25198 4746 ft 209 kts 20°
2026-05-07 16:28 12.09791 109.25684 4624 ft 209 kts 20°
2026-05-07 16:28 12.11181 109.26166 4514 ft 209 kts 20°
2026-05-07 16:29 12.12567 109.26647 4397 ft 209 kts 20°
2026-05-07 16:29 12.13903 109.27214 4265 ft 207 kts 34°
2026-05-07 16:29 12.14783 109.28385 4128 ft 208 kts 69°
2026-05-07 16:29 12.14803 109.29849 4024 ft 211 kts 105°
2026-05-07 16:30 12.13953 109.31076 4018 ft 217 kts 139°
2026-05-07 16:30 12.12518 109.31615 4014 ft 223 kts 173°
2026-05-07 16:30 12.12139 109.31627 4023 ft 223 kts 177°
2026-05-07 16:31 12.12008 109.31625 4026 ft 223 kts 178°
2026-05-07 16:31 12.10606 109.31551 4026 ft 224 kts 182°
2026-05-07 16:31 12.08747 109.31423 4016 ft 224 kts 181°
2026-05-07 16:32 12.07173 109.31359 4014 ft 223 kts 180°
2026-05-07 16:32 12.05605 109.31346 4011 ft 223 kts 178°
2026-05-07 16:32 12.04083 109.31595 3972 ft 220 kts 153°
2026-05-07 16:32 12.02936 109.32596 3877 ft 215 kts 128°
2026-05-07 16:33 12.02014 109.33787 3763 ft 214 kts 124°
2026-05-07 16:33 12.01090 109.35007 3645 ft 213 kts 125°
2026-05-07 16:33 12.00158 109.36189 3526 ft 213 kts 127°
2026-05-07 16:33 11.99190 109.37352 3405 ft 214 kts 130°
2026-05-07 16:34 11.97931 109.38091 3240 ft 211 kts 168°
2026-05-07 16:34 11.96537 109.37810 3149 ft 195 kts 204°
2026-05-07 16:34 11.95394 109.37184 3012 ft 179 kts 208°
2026-05-07 16:34 11.94339 109.36584 2853 ft 164 kts 208°
2026-05-07 16:35 11.93363 109.36051 2720 ft 159 kts 207°
2026-05-07 16:35 11.92381 109.35538 2558 ft 155 kts 206°
2026-05-07 16:35 11.91402 109.35046 2378 ft 155 kts 205°
2026-05-07 16:35 11.90428 109.34567 2099 ft 153 kts 205°
2026-05-07 16:36 11.89452 109.34094 1700 ft 155 kts 205°
2026-05-07 16:36 11.88469 109.33621 1326 ft 155 kts 205°
2026-05-07 16:36 11.87505 109.33158 1042 ft 152 kts 205°
2026-05-07 16:36 11.86532 109.32691 1021 ft 152 kts 205°
2026-05-07 16:37 11.85572 109.32230 1017 ft 153 kts 205°
2026-05-07 16:37 11.84595 109.31760 1016 ft 153 kts 205°
2026-05-07 16:37 11.83624 109.31295 1016 ft 153 kts 205°
2026-05-07 16:37 11.82656 109.30831 1018 ft 153 kts 205°
2026-05-07 16:38 11.81693 109.30370 1018 ft 154 kts 205°
2026-05-07 16:38 11.80717 109.29903 1015 ft 154 kts 206°
2026-05-07 16:38 11.79738 109.29434 1013 ft 154 kts 205°
2026-05-07 16:38 11.78764 109.28967 1010 ft 154 kts 205°
2026-05-07 16:39 11.77789 109.28503 1004 ft 154 kts 205°
2026-05-07 16:39 11.76805 109.28036 1001 ft 154 kts 205°
2026-05-07 16:39 11.76237 109.27766 1003 ft 154 kts 205°